Home   Weather   Jülich   Past weeks

Flag for Germany Past Weather in Jülich, North Rhine-Westphalia, Germany — Yesterday and Last 2 Weeks

Now
73 °F

Sunny.


Feels Like: 77 °F
Forecast: 56 / 78 °F
Wind: 5 mph from Northwest

Location: Geilenkirchen Airport

Current Time: Jun 26, 2017 at 5:38:08 pm

Latest Report: Jun 26, 2017 at 4:50 pm


Visibility: 10 mi

Pressure: 29.92 "Hg

Humidity: 47%

Dew Point: 52 °F

Location of JülichLocation

Past Weather in Jülich — Graph

°F

Jülich Temperature Yesterday

Maximum temperature yesterday: 72 °F (at 7:50 pm)
Minimum temperature yesterday: 66 °F (at 10:50 pm)
Average temperature yesterday: 68 °F

High & Low Weather Summary for the Past Weeks

 TemperatureHumidityPressure
High95 °F (Jun 22, 2:50 pm)100% (Jun 14, 5:50 am)30.24 "Hg (Jun 14, 5:50 am)
Low48 °F (Jun 14, 5:50 am)31% (Jun 19, 5:50 pm)29.80 "Hg (Jun 22, 3:50 pm)
Average70 °F61%30.04 "Hg
* Reported Jun 11 7:50 pm — Jun 26 3:50 pm, Jülich. Weather by CustomWeather, © 2017

Note: Actual official high and low records may vary slightly from our data, if they occured in-between our weather recording intervals... More about our weather records

Advertising

Jülich Weather History for the Previous 24 Hours

Scroll right to see more
 ConditionsComfort  
Time TempWeatherWind HumidityBarometerVisibility
3:50 pm
Mon, Jun 26
73 °FPartly sunny.7 mph47%29.95 "HgN/A
2:50 pm72 °FPartly sunny.8 mph50%29.95 "HgN/A
1:50 pm70 °FScattered clouds.10 mph53%29.95 "HgN/A
12:50 pm70 °FScattered clouds.10 mph57%29.95 "HgN/A
11:50 am68 °FScattered clouds.8 mph64%29.95 "HgN/A
10:50 am66 °FBroken clouds.9 mph73%29.95 "HgN/A
9:50 am64 °FBroken clouds.12 mph78%29.95 "HgN/A
8:50 am63 °FPartly sunny.12 mph83%29.95 "HgN/A
7:50 am63 °FScattered clouds.12 mph83%29.92 "HgN/A
6:50 am63 °FPartly sunny.8 mph83%29.92 "HgN/A
5:50 am61 °FPartly sunny.12 mph83%29.92 "HgN/A
4:50 am63 °FPassing clouds.13 mph77%29.92 "HgN/A
3:50 am63 °FPassing clouds.12 mph77%29.92 "HgN/A
2:50 am63 °FPassing clouds.10 mph77%29.92 "HgN/A
1:50 am63 °FClear.13 mph77%29.92 "Hg10 mi
12:50 am64 °FPassing clouds.13 mph78%29.92 "HgN/A
11:50 pm
Sun, Jun 25
66 °FClear.15 mph68%29.92 "Hg10 mi
10:50 pm66 °FPassing clouds.15 mph68%29.92 "HgN/A
9:50 pm68 °FScattered clouds.16 mph64%29.92 "HgN/A
8:50 pm70 °FScattered clouds.23 mph57%29.92 "HgN/A
7:50 pm72 °FPartly sunny.17 mph57%29.89 "HgN/A
Weather by CustomWeather, © 2017

See weather overviewHow to use our weather pages